Theta_e
287 282 279 281 283 280 279 279 280 283 288 287 286 287 291 294 294 295 295 295 297 299 304 306 307 308 308 310 310 312 314 314 313 310 308 307 306 305 304 305 305 304 304 303
282 279 284 285 284 283 280 279 278 283 287 287 285 286 289 291 292 295 297 298 297 299 300 303 305 306 307 307 309 310 313 313 312 313 312 312 310 308 307 304 304 304 303 302
280 282 285 284 281 281 281 280 279 280 284 284 284 284 286 290 291 293 296 299 300 300 300 301 303 304 306 306 307 308 311 312 312 313 312 305 305 303 304 302 303 303 303 302
281 286 282 281 280 282 278 283 283 281 281 276 283 275 280 284 287 291 294 295 297 299 300 301 303 303 304 306 307 308 310 311 312 313 311 308 307 307 306 307 305 301 302 301
280 280 281 280 281 283 280 284 282 281 280 278 279 277 278 283 284 286 291 294 296 299 300 300 302 304 305 306 307 307 308 309 311 311 311 309 308 309 308 303 303 303 300 301
281 282 283 282 284 284 283 283 283 281 279 273 278 277 278 281 283 287 289 291 294 297 299 301 302 304 305 306 306 306 306 307 309 309 309 308 308 307 302 303 302 302 301 299
280 281 280 283 281 282 283 280 274 272 272 272 277 276 280 283 284 286 288 290 292 293 296 299 299 301 303 303 304 305 305 304 307 308 308 307 308 306 304 302 303 302 301 298
274 272 280 283 282 279 280 281 275 268 270 273 278 274 281 286 289 288 289 291 291 290 291 294 299 300 302 303 303 303 304 303 303 305 306 307 307 306 305 303 304 302 303 302
273 273 279 282 282 284 278 277 283 277 267 274 276 279 284 286 287 288 288 288 289 289 290 291 294 298 300 302 302 302 302 303 302 303 304 305 306 305 304 302 303 303 302 300
277 273 278 280 282 282 281 283 277 277 266 267 274 276 278 282 285 287 286 287 287 287 288 289 291 295 297 300 302 301 301 302 301 300 302 302 303 304 303 300 300 299 300 298
277 276 274 280 278 278 279 278 279 279 277 272 271 275 281 286 287 286 285 286 286 286 287 290 291 293 295 297 298 299 298 299 297 298 298 299 299 299 299 298 298 298 297 296
283 277 272 275 277 279 282 280 281 276 274 277 276 277 283 284 284 285 286 286 285 286 287 289 291 293 293 295 296 297 297 297 296 297 296 296 296 296 296 296 296 296 295 295
282 278 266 270 275 276 278 280 282 282 278 276 274 276 285 284 284 286 286 286 287 286 288 290 290 291 292 293 294 295 296 296 295 295 295 295 294 295 295 295 294 294 294 294
284 280 277 272 275 276 276 278 280 279 276 277 277 279 281 283 284 284 286 286 287 287 288 288 289 290 291 293 294 294 295 295 294 294 294 293 294 294 294 294 293 293 293 293
282 274 278 279 277 277 278 279 279 278 280 277 279 280 283 283 286 285 286 286 286 287 287 287 289 290 290 291 293 293 294 294 294 293 292 292 293 293 293 292 292 292 292 292
283 275 278 273 278 277 277 278 279 280 281 281 281 280 284 286 286 286 287 286 286 287 287 287 289 289 290 291 291 292 293 293 294 293 292 292 292 292 292 292 292 292 291 291
278 277 265 268 275 276 270 276 277 279 280 281 277 283 284 284 286 286 286 285 287 288 287 287 288 289 290 291 292 292 292 293 293 293 293 292 292 292 292 291 291 290 290 290
279 277 276 271 267 268 277 282 282 280 281 282 283 284 284 286 287 287 288 288 287 287 287 288 288 289 290 290 291 291 291 291 292 291 292 292 292 291 290 290 289 288 289 288
282 279 274 271 271 273 276 278 277 277 279 283 282 284 283 283 283 286 288 287 289 289 289 289 289 289 289 290 290 290 290 290 290 289 290 290 290 289 289 288 287 287 287 286
281 281 275 271 270 267 278 279 281 281 275 285 284 284 284 283 281 286 288 287 288 289 289 289 289 289 289 289 290 289 289 288 288 288 288 289 289 289 288 287 286 286 286 285
275 276 273 274 273 271 279 280 282 273 277 283 285 285 284 283 287 289 288 288 289 289 288 289 290 290 289 289 289 288 288 287 286 287 287 287 288 287 287 286 285 285 285 284
275 275 275 276 274 270 280 279 279 284 281 283 282 283 283 286 288 286 286 287 287 287 288 288 288 288 288 289 289 287 287 286 287 286 286 285 286 286 286 285 284 284 284 283
274 280 278 279 278 282 283 284 286 284 283 284 284 284 283 283 283 284 284 285 286 286 286 288 288 287 288 288 289 287 285 286 286 285 284 284 285 285 285 284 284 283 284 283
280 281 280 280 283 281 281 282 283 283 284 285 285 285 283 283 283 284 284 284 284 284 285 286 286 286 286 287 287 287 285 286 286 285 284 284 284 284 284 285 285 284 283 283
281 283 279 279 282 280 282 283 284 284 285 285 285 285 285 285 284 284 284 284 284 284 285 286 286 286 286 286 286 285 285 285 285 284 283 283 284 284 284 284 284 284 284 285
281 282 280 279 286 284 284 286 285 285 284 285 285 284 285 285 285 285 284 284 284 283 284 284 284 285 285 284 284 284 285 285 284 283 283 283 283 283 283 283 283 286 286 287
Wind_Speed
3 4 9 13 15 1 2 4 5 3 4 3 7 11 17 14 6 11 12 11 12 13 15 10 14 15 14 15 16 18 18 16 12 9 9 7 8 7 6 7 9 10 9 10
1 15 11 7 6 7 6 5 6 6 7 3 8 15 13 11 8 11 17 15 14 9 7 9 14 16 18 19 18 17 19 18 14 11 10 6 8 6 9 8 8 10 11 10
8 5 7 13 7 10 12 18 7 8 3 5 4 17 8 11 10 11 13 15 14 16 14 11 14 19 16 18 20 20 21 19 17 15 10 3 4 3 6 6 8 9 11 10
9 9 7 6 10 12 17 10 9 6 4 7 3 13 11 8 9 8 13 11 16 15 11 11 16 15 19 22 18 18 18 19 17 18 15 17 12 11 8 9 8 9 11 10
14 8 9 13 11 13 9 10 12 8 7 2 7 4 6 6 14 11 13 15 16 17 16 15 16 18 21 17 19 18 17 17 18 19 18 15 15 11 7 5 10 11 11 11
9 3 8 11 7 15 4 3 3 3 5 5 16 10 20 11 10 9 9 12 14 14 13 14 14 13 13 14 15 17 20 21 20 21 21 21 19 14 9 10 9 8 7 8
11 17 3 5 5 4 8 6 1 1 3 11 5 11 23 7 5 8 10 13 15 10 8 11 11 12 13 17 18 17 19 20 20 20 20 19 19 16 16 13 11 10 8 5
13 11 18 13 19 9 17 14 7 9 6 5 6 10 13 14 15 9 10 15 8 7 7 9 10 12 14 17 19 19 20 19 20 20 20 17 17 12 11 13 9 9 9 9
8 10 2 7 9 16 8 11 15 2 1 1 6 8 8 8 11 10 13 7 10 8 8 10 7 8 11 14 18 20 20 18 18 20 17 17 16 16 14 13 12 9 8 7
6 3 5 2 6 7 11 8 7 5 3 5 5 6 7 2 12 12 11 8 9 8 7 6 5 6 6 10 13 15 16 18 17 16 16 15 15 14 13 12 13 11 9 9
3 5 1 5 9 16 7 7 6 6 6 6 7 10 9 15 13 9 6 8 7 8 6 4 4 3 5 5 9 12 13 14 14 15 14 14 13 12 11 12 11 11 10 10
22 5 6 10 4 3 13 21 15 7 8 12 4 13 4 6 3 3 7 7 6 4 3 4 4 3 3 5 6 11 12 13 13 13 13 14 13 12 12 10 10 10 10 9
2 8 1 6 3 1 7 13 16 18 3 14 9 13 5 6 5 5 7 3 4 3 2 3 4 4 5 5 5 6 9 11 11 12 12 11 12 13 13 11 10 10 9 9
16 8 17 17 16 9 7 10 17 10 11 21 18 17 12 6 7 4 7 5 4 6 7 5 4 5 4 4 5 5 5 8 10 12 12 12 12 13 12 11 10 10 10 10
4 9 15 21 6 7 10 16 14 20 26 15 31 24 19 10 11 8 7 4 5 7 7 6 6 6 5 5 5 4 5 7 9 11 11 12 10 10 10 11 10 9 10 9
6 12 12 10 10 9 7 8 15 21 24 20 29 24 10 9 6 9 10 6 7 8 9 7 7 6 7 6 6 5 6 8 10 10 10 10 11 10 10 10 10 9 9 9
7 5 1 10 5 8 4 21 9 10 13 14 21 38 8 13 14 12 10 8 9 10 7 8 8 7 6 6 6 6 6 6 9 10 9 10 11 11 10 10 11 10 10 10
7 6 4 7 3 9 10 14 22 20 17 18 21 29 8 12 13 11 11 12 10 9 9 8 7 6 5 4 4 6 5 5 8 9 10 11 12 11 11 11 11 10 9 11
16 10 4 6 11 3 2 7 9 11 22 19 24 25 8 5 3 14 12 10 12 11 11 9 8 7 7 8 8 7 6 7 9 9 9 10 12 13 12 12 12 10 11 10
22 20 9 5 7 12 19 6 8 6 18 19 18 25 16 9 11 20 7 7 11 13 9 10 12 9 11 8 10 9 7 8 9 10 9 8 12 13 12 12 13 9 11 11
9 10 17 16 9 8 7 11 9 7 15 7 16 21 15 16 22 16 9 10 9 7 8 8 12 13 12 11 12 10 8 8 8 9 12 8 9 13 13 12 11 11 12 11
11 6 10 10 14 10 11 9 20 20 2 5 3 7 10 19 21 8 9 9 9 9 10 12 12 11 10 11 11 12 10 8 10 12 11 12 10 10 10 14 11 12 12 12
8 10 5 9 8 6 15 12 13 5 6 6 4 5 9 8 7 7 8 8 7 8 8 9 11 12 11 11 11 13 10 11 11 13 13 11 12 10 11 13 13 11 10 10
7 3 9 5 18 11 12 4 5 8 8 7 5 7 8 6 7 8 5 4 6 7 10 9 13 13 13 11 9 11 13 12 13 13 13 12 13 12 10 8 8 9 9 9
8 3 4 9 12 2 6 13 9 8 8 6 6 7 7 5 5 5 5 6 6 7 7 10 12 12 13 12 10 14 14 14 13 12 11 11 10 11 10 7 7 7 6 8
6 14 11 18 17 10 8 12 8 11 12 10 9 6 5 6 7 4 6 4 5 8 8 8 8 10 13 13 13 12 15 14 15 13 10 8 9 9 10 10 8 12 11 13
Wind_Direction
210 183 200 202 213 301 177 216 231 248 275 256 238 249 260 258 212 241 251 245 235 227 244 184 185 181 181 182 186 191 189 188 179 179 171 179 184 182 189 189 188 188 186 191
132 234 214 211 208 226 248 247 243 274 270 212 278 264 252 252 235 221 239 245 237 236 197 189 182 182 190 189 192 190 194 188 187 185 188 184 180 192 192 187 188 195 190 187
199 215 199 191 190 210 229 235 226 223 316 261 312 279 237 257 229 233 235 236 241 229 228 194 188 192 189 195 194 194 192 189 190 184 179 110 117 104 172 182 194 198 191 188
229 229 202 185 221 197 242 197 203 203 174 248 139 279 232 246 239 230 246 237 240 231 227 203 196 194 193 202 197 196 192 190 189 185 185 186 198 197 197 197 192 185 189 192
227 173 192 217 215 171 237 172 191 187 208 5 229 278 273 219 254 240 237 235 235 231 222 214 199 200 202 194 193 191 189 190 189 188 191 190 200 206 186 168 181 187 192 192
240 206 175 205 187 192 184 95 88 95 128 223 236 185 276 230 233 236 230 238 236 233 225 221 210 202 199 190 185 186 186 194 189 190 191 194 196 192 173 182 187 190 191 191
224 232 203 175 154 139 173 138 214 293 189 233 171 168 243 236 250 231 245 246 245 231 222 218 195 189 185 184 185 186 189 194 193 193 194 194 195 188 189 183 187 180 185 183
200 250 188 195 206 172 195 190 183 202 200 223 140 214 242 220 246 252 252 244 256 227 225 222 209 198 193 189 187 187 190 194 189 191 196 193 194 190 194 189 183 190 193 197
174 251 160 201 178 164 195 198 212 318 339 187 207 275 289 254 262 261 247 256 262 256 229 231 221 206 201 193 192 189 189 194 190 191 191 193 192 190 191 184 185 188 184 178
226 269 209 203 122 225 184 157 193 215 221 247 261 267 238 259 241 256 264 252 260 262 253 233 227 229 212 200 191 187 190 191 188 186 189 190 190 193 188 174 184 183 181 167
197 178 268 130 203 179 161 204 207 183 176 209 249 253 209 218 228 243 262 271 278 281 243 224 222 232 220 192 180 181 179 180 178 183 183 182 184 181 181 185 186 184 174 172
205 181 192 203 241 226 221 207 198 189 219 228 220 242 251 219 244 256 270 292 290 293 212 201 215 189 201 201 184 181 180 179 180 181 181 183 173 174 180 187 182 171 177 174
250 211 122 341 349 181 208 214 214 229 16 220 215 251 263 251 251 250 247 293 303 299 242 234 239 219 195 199 195 190 184 183 168 169 174 178 174 173 180 181 172 169 166 172
311 245 202 213 218 138 205 198 211 205 231 240 238 244 264 278 269 248 278 250 230 240 215 225 247 241 234 213 186 194 187 178 165 166 172 176 181 177 174 170 169 166 167 165
191 271 226 225 198 184 202 211 198 208 227 217 243 240 245 232 254 277 238 228 260 269 248 233 236 230 216 208 187 191 191 171 170 169 170 175 171 168 157 159 162 157 161 161
227 241 231 236 196 195 224 214 211 213 227 238 251 261 235 249 246 270 269 223 244 262 253 219 234 225 216 207 195 178 183 180 168 170 171 155 152 154 156 147 147 146 143 140
221 331 339 227 193 157 299 225 210 217 220 219 237 245 128 226 229 235 256 239 241 255 255 222 221 219 209 208 188 177 171 162 164 156 150 148 146 144 143 136 134 135 136 133
245 220 248 237 107 196 243 172 207 215 227 219 245 256 186 229 242 237 229 231 220 231 231 222 198 198 198 190 158 122 139 149 140 135 137 138 137 133 133 131 129 125 130 131
210 230 261 256 202 276 173 202 163 179 246 229 234 253 209 178 244 258 221 210 210 215 226 210 179 156 164 172 137 133 144 134 127 128 135 138 136 133 135 130 129 126 123 121
207 213 197 248 224 199 229 186 144 106 265 234 230 246 229 156 229 248 203 199 223 217 188 183 168 152 156 162 135 138 155 144 139 134 124 135 134 133 131 128 127 122 121 119
185 198 213 224 242 272 201 165 134 145 252 213 221 229 216 207 230 253 195 212 219 212 176 142 162 166 157 157 145 146 153 155 131 123 117 116 123 124 125 120 122 123 121 118
210 178 219 218 211 253 171 118 168 216 172 173 163 207 191 213 233 235 229 214 193 176 151 158 159 158 150 154 154 150 155 141 132 121 117 118 116 122 126 125 124 125 127 123
237 203 192 211 212 241 174 191 221 173 187 197 181 213 207 227 236 207 231 217 201 175 154 156 157 148 154 157 163 157 143 144 132 126 124 121 118 120 128 132 134 131 132 133
238 174 218 159 233 212 197 247 219 189 192 181 195 185 169 183 215 223 223 212 177 166 165 162 150 159 161 156 161 142 144 142 138 133 130 130 129 130 131 131 137 140 144 144
267 133 154 262 285 168 218 202 200 199 187 176 185 187 183 182 197 214 213 217 192 168 158 164 172 169 163 154 150 146 147 144 140 132 136 136 135 134 130 128 140 144 142 152
202 246 209 223 217 205 211 207 177 183 201 199 186 195 199 196 219 215 238 219 188 175 156 159 158 153 153 149 144 151 147 144 142 135 136 142 143 141 135 130 119 117 127 138